Muscle Shoals, AL

1:04 AM CDT on April 24, 2017 (GMT -0500)
Northwest Alabama Regional

Weather History for KMSL - September, 2013

Change the Weather History Date:

Wednesday, September 18, 2013

  Actual Average Record
Temperature  
Mean Temperature 77 °F 72 °F  
Max Temperature 86 °F 84 °F 100 °F (1927)
Min Temperature 67 °F 61 °F 40 °F (1903)
Degree Days  
Heating Degree Days 0 0  
Month to date heating degree days 0 0  
Since 1 July heating degree days 0 0  
Cooling Degree Days 12 8  
Month to date cooling degree days 227 189  
Year to date cooling degree days 1708 1732  
Growing Degree Days 25 (Base 50)    
Moisture  
Dew Point 65 °F    
Average Humidity 71    
Maximum Humidity 87    
Minimum Humidity 55    
Precipitation  
Precipitation 0.00 in 0.12 in 1.40 in (1986)
Month to date precipitation 0.60 2.20  
Year to date precipitation 43.49 37.91  
Snow  
Snow 0.00 in - - ()
Month to date snowfall 0.0  
Since 1 July snowfall 0.0  
Since 1 September snowfall 0.0  
Snow Depth 0.00 in    
Sea Level Pressure  
Sea Level Pressure 30.13 in    
Wind  
Wind Speed 5 mph (SE)    
Max Wind Speed 12 mph    
Max Gust Speed 16 mph    
Visibility 10 miles    
Events      
T = Trace of Precipitation, MM = Missing Value Source: NWS Daily Summary

Daily Weather History Graph

Daily Weather History Graph

Search for Another Location

Airport or City:

Trip Planner

Search our weather history database for the weather conditions in past years. The results will help you decide how hot, cold, wet, or windy it might be!

Date:

Astronomy

Sep. 18, 2013 Rise Set
Actual Time 6:35 AM CDT 6:52 PM CDT
Civil Twilight 6:10 AM CDT 7:17 PM CDT
Nautical Twilight 5:40 AM CDT 7:47 PM CDT
Astronomical Twilight 5:10 AM CDT 8:17 PM CDT
Moon 6:16 PM CDT (9/18) 5:38 AM CDT (9/18)
Length of Visible Light 13h 07m
Length of Day
12h 16m
Waxing Gibbous, 99% of the Moon is Illuminated
Sep 18
Waxing Gibbous
Sep 19
Full
Sep 26
Last Quarter
Oct 4
New
Oct 11
First Quarter

Hourly Weather History & Observations

Time (CDT) Temp. Heat Index Dew Point Humidity Pressure Visibility Wind Dir Wind Speed Gust Speed Precip Events Conditions
12:53 AM 72.0 °F - 66.0 °F 81% 30.12 in 10.0 mi SE 4.6 mph - N/A   Clear
1:53 AM 71.1 °F - 64.9 °F 81% 30.12 in 10.0 mi ESE 4.6 mph - N/A   Clear
2:53 AM 70.0 °F - 64.0 °F 81% 30.12 in 10.0 mi ESE 4.6 mph - N/A   Clear
3:53 AM 69.1 °F - 64.0 °F 84% 30.13 in 10.0 mi East 3.5 mph - N/A   Clear
4:53 AM 68.0 °F - 63.0 °F 84% 30.14 in 10.0 mi ESE 3.5 mph - N/A   Clear
5:53 AM 66.9 °F - 63.0 °F 87% 30.14 in 10.0 mi East 3.5 mph - N/A   Clear
6:53 AM 66.9 °F - 63.0 °F 87% 30.15 in 10.0 mi ESE 4.6 mph - N/A   Clear
7:53 AM 68.0 °F - 63.0 °F 84% 30.17 in 10.0 mi East 4.6 mph - N/A   Mostly Cloudy
8:34 AM 69.8 °F - 62.6 °F 78% 30.19 in 10.0 mi ESE 4.6 mph - N/A   Scattered Clouds
8:53 AM 71.1 °F - 63.0 °F 75% 30.18 in 10.0 mi SE 6.9 mph - N/A   Clear
9:53 AM 77.0 °F - 63.0 °F 62% 30.18 in 10.0 mi South 8.1 mph - N/A   Mostly Cloudy
10:42 AM 78.8 °F - 64.4 °F 61% 30.19 in 10.0 mi SSE 8.1 mph - N/A   Mostly Cloudy
10:53 AM 79.0 °F - 64.0 °F 60% 30.17 in 10.0 mi South 8.1 mph - N/A   Mostly Cloudy
11:53 AM 81.0 °F 82.7 °F 64.9 °F 58% 30.15 in 10.0 mi South 6.9 mph - N/A   Mostly Cloudy
12:53 PM 82.9 °F 85.0 °F 66.0 °F 56% 30.14 in 10.0 mi Variable 5.8 mph - N/A   Mostly Cloudy
1:53 PM 82.9 °F 84.6 °F 64.9 °F 54% 30.12 in 10.0 mi SSE 4.6 mph - N/A   Overcast
2:53 PM 84.0 °F 86.3 °F 66.0 °F 55% 30.10 in 10.0 mi SSE 4.6 mph - N/A   Mostly Cloudy
3:53 PM 82.9 °F 85.0 °F 66.0 °F 56% 30.08 in 10.0 mi South 3.5 mph - N/A   Partly Cloudy
4:53 PM 82.0 °F 84.1 °F 66.0 °F 58% 30.08 in 10.0 mi South 5.8 mph - N/A   Clear
5:53 PM 81.0 °F 83.0 °F 66.0 °F 60% 30.07 in 10.0 mi SSE 8.1 mph - N/A   Clear
6:53 PM 78.1 °F - 66.0 °F 66% 30.07 in 10.0 mi SE 4.6 mph - N/A   Clear
7:53 PM 73.0 °F - 66.0 °F 79% 30.09 in 10.0 mi ESE 3.5 mph - N/A   Clear
8:53 PM 71.1 °F - 64.9 °F 81% 30.10 in 10.0 mi Calm Calm - N/A   Clear
9:53 PM 71.1 °F - 66.0 °F 84% 30.10 in 10.0 mi Calm Calm - N/A   Clear
10:53 PM 71.1 °F - 66.0 °F 84% 30.10 in 10.0 mi SE 3.5 mph - N/A   Clear
11:53 PM 69.1 °F - 64.9 °F 87% 30.10 in 10.0 mi ESE 4.6 mph - N/A   Clear